• In Kazakhstan
  • List of Countries
  • For 7 days
  • Water Temperature
  • Satellite Maps
  • Weather Map
  • News
  • Weather Widgets
  • user-avatar
    Login

    Hourly Weather Kahramanmaras

    Today, 20 September, Wednesday

    Time Temperature Precipitation Wind Pressure Humidity
    00:00 +21°C° 0 mm 1 mps 660 mmHg 73%
    01:00 +20°C° 0 mm 1 mps 660 mmHg 72%
    02:00 +20°C° 0 mm 1 mps 659 mmHg 70%
    03:00 +20°C° 0 mm 1 mps 659 mmHg 67%
    04:00 +20°C° 0 mm 1 mps 659 mmHg 64%
    05:00 +20°C° 0 mm 1 mps 659 mmHg 62%
    06:00 +22°C° 0 mm 1 mps 660 mmHg 53%
    07:00 +24°C° 0 mm 1 mps 661 mmHg 45%
    08:00 +27°C° 0 mm 1 mps 662 mmHg 37%
    09:00 +28°C° 0 mm 2 mps 662 mmHg 33%
    10:00 +30°C° 0 mm 2 mps 662 mmHg 28%
    11:00 +31°C° 0 mm 3 mps 662 mmHg 24%
    12:00 +31°C° 0.2 mm 3 mps 662 mmHg 25%
    13:00 +33°C° 0.2 mm 3 mps 662 mmHg 25%
    14:00 +33°C° 0.2 mm 3 mps 662 mmHg 26%
    15:00 +30°C° 0.4 mm 3 mps 661 mmHg 34%
    16:00 +29°C° 0.4 mm 3 mps 660 mmHg 42%
    17:00 +27°C° 0.4 mm 3 mps 660 mmHg 50%
    18:00 +25°C° 0.4 mm 3 mps 660 mmHg 58%
    19:00 +24°C° 0.4 mm 2 mps 660 mmHg 66%
    20:00 +21°C° 0.4 mm 2 mps 660 mmHg 74%
    21:00 +21°C° 0 mm 2 mps 660 mmHg 75%
    22:00 +20°C° 0 mm 2 mps 660 mmHg 77%
    23:00 +20°C° 0 mm 2 mps 659 mmHg 79%

    Tomorrow, 21 September, Thursday

    Time Temperature Precipitation Wind Pressure Humidity
    00:00 +20°C° 0.1 mm 2 mps 659 mmHg 79%
    01:00 +19°C° 0.1 mm 2 mps 659 mmHg 79%
    02:00 +20°C° 0.1 mm 1 mps 659 mmHg 80%
    03:00 +20°C° 0 mm 1 mps 659 mmHg 79%
    04:00 +20°C° 0 mm 1 mps 659 mmHg 79%
    05:00 +19°C° 0 mm 1 mps 659 mmHg 78%
    06:00 +21°C° 0 mm 1 mps 660 mmHg 71%
    07:00 +21°C° 0 mm 2 mps 660 mmHg 64%
    08:00 +24°C° 0 mm 2 mps 661 mmHg 56%
    09:00 +26°C° 0 mm 2 mps 661 mmHg 50%
    10:00 +27°C° 0 mm 2 mps 661 mmHg 43%
    11:00 +29°C° 0 mm 3 mps 662 mmHg 37%
    12:00 +29°C° 0 mm 3 mps 661 mmHg 37%
    13:00 +30°C° 0 mm 3 mps 661 mmHg 37%
    14:00 +30°C° 0 mm 4 mps 661 mmHg 37%
    15:00 +29°C° 0 mm 4 mps 660 mmHg 45%
    16:00 +27°C° 0 mm 4 mps 660 mmHg 53%
    17:00 +26°C° 0 mm 4 mps 659 mmHg 61%
    18:00 +24°C° 0 mm 3 mps 659 mmHg 67%
    19:00 +22°C° 0 mm 3 mps 659 mmHg 74%
    20:00 +21°C° 0 mm 2 mps 659 mmHg 80%
    21:00 +20°C° 0 mm 2 mps 659 mmHg 81%
    22:00 +20°C° 0 mm 2 mps 659 mmHg 82%
    23:00 +20°C° 0 mm 2 mps 659 mmHg 83%

    Day after tomorrow, 22 September, Friday

    Time Temperature Precipitation Wind Pressure Humidity
    00:00 +19°C° 0 mm 2 mps 659 mmHg 85%
    01:00 +19°C° 0 mm 2 mps 659 mmHg 86%
    02:00 +18°C° 0 mm 2 mps 658 mmHg 87%
    03:00 +18°C° 0 mm 2 mps 658 mmHg 87%
    04:00 +18°C° 0 mm 2 mps 658 mmHg 87%
    05:00 +17°C° 0 mm 2 mps 658 mmHg 88%
    06:00 +19°C° 0 mm 2 mps 659 mmHg 78%
    07:00 +20°C° 0 mm 2 mps 659 mmHg 68%
    08:00 +22°C° 0 mm 3 mps 660 mmHg 58%
    09:00 +23°C° 0 mm 4 mps 660 mmHg 50%
    10:00 +26°C° 0 mm 4 mps 660 mmHg 42%
    11:00 +27°C° 0 mm 5 mps 661 mmHg 35%
    12:00 +27°C° 0 mm 5 mps 661 mmHg 34%
    13:00 +27°C° 0 mm 5 mps 660 mmHg 34%
    14:00 +27°C° 0 mm 6 mps 660 mmHg 34%
    15:00 +25°C° 0 mm 5 mps 660 mmHg 40%
    16:00 +23°C° 0 mm 5 mps 660 mmHg 46%
    17:00 +21°C° 0 mm 5 mps 659 mmHg 52%
    18:00 +20°C° 0 mm 4 mps 659 mmHg 59%
    19:00 +18°C° 0 mm 3 mps 660 mmHg 67%
    20:00 +17°C° 0 mm 2 mps 660 mmHg 74%
    21:00 +16°C° 0 mm 2 mps 660 mmHg 76%
    22:00 +16°C° 0 mm 2 mps 660 mmHg 77%
    23:00 +15°C° 0 mm 2 mps 660 mmHg 78%

    23 September, Saturday

    Time Temperature Precipitation Wind Pressure Humidity
    00:00 +15°C° 0 mm 2 mps 660 mmHg 78%
    01:00 +15°C° 0 mm 2 mps 660 mmHg 79%
    02:00 +14°C° 0 mm 2 mps 660 mmHg 79%
    03:00 +14°C° 0 mm 2 mps 660 mmHg 78%
    04:00 +14°C° 0 mm 2 mps 660 mmHg 77%
    05:00 +14°C° 0 mm 1 mps 660 mmHg 77%
    06:00 +16°C° 0 mm 2 mps 661 mmHg 67%
    07:00 +18°C° 0 mm 2 mps 661 mmHg 58%
    08:00 +19°C° 0 mm 2 mps 662 mmHg 49%
    09:00 +21°C° 0 mm 2 mps 662 mmHg 44%
    10:00 +23°C° 0 mm 2 mps 663 mmHg 39%
    11:00 +25°C° 0 mm 2 mps 663 mmHg 34%
    12:00 +25°C° 0 mm 2 mps 663 mmHg 33%
    13:00 +26°C° 0 mm 3 mps 662 mmHg 32%
    14:00 +27°C° 0 mm 3 mps 662 mmHg 31%
    15:00 +25°C° 0 mm 3 mps 662 mmHg 36%
    16:00 +24°C° 0 mm 3 mps 662 mmHg 41%
    17:00 +22°C° 0 mm 3 mps 661 mmHg 46%
    18:00 +21°C° 0 mm 2 mps 661 mmHg 55%
    19:00 +19°C° 0 mm 2 mps 661 mmHg 64%
    20:00 +18°C° 0 mm 1 mps 661 mmHg 72%
    21:00 +18°C° 0 mm 1 mps 661 mmHg 75%
    22:00 +16°C° 0 mm 1 mps 661 mmHg 78%
    23:00 +16°C° 0 mm 1 mps 661 mmHg 81%

    24 September, Sunday

    Time Temperature Precipitation Wind Pressure Humidity
    00:00 +16°C° 0 mm 1 mps 660 mmHg 82%
    01:00 +15°C° 0 mm 1 mps 660 mmHg 82%
    02:00 +15°C° 0 mm 1 mps 660 mmHg 83%
    03:00 +15°C° 0 mm 1 mps 660 mmHg 82%
    04:00 +14°C° 0 mm 1 mps 660 mmHg 81%
    05:00 +14°C° 0 mm 1 mps 660 mmHg 80%
    06:00 +16°C° 0 mm 1 mps 661 mmHg 71%
    07:00 +19°C° 0 mm 1 mps 662 mmHg 62%
    08:00 +21°C° 0 mm 1 mps 662 mmHg 53%
    09:00 +23°C° 0 mm 1 mps 663 mmHg 43%
    10:00 +25°C° 0 mm 1 mps 663 mmHg 34%
    11:00 +26°C° 0 mm 2 mps 663 mmHg 25%
    12:00 +27°C° 0 mm 2 mps 663 mmHg 22%
    13:00 +27°C° 0 mm 2 mps 663 mmHg 19%
    14:00 +28°C° 0 mm 2 mps 662 mmHg 17%
    15:00 +27°C° 0 mm 2 mps 662 mmHg 19%
    16:00 +26°C° 0 mm 2 mps 662 mmHg 21%
    17:00 +25°C° 0 mm 1 mps 662 mmHg 23%
    18:00 +23°C° 0 mm 1 mps 661 mmHg 26%
    19:00 +22°C° 0 mm 1 mps 661 mmHg 28%
    20:00 +20°C° 0 mm 1 mps 661 mmHg 30%
    21:00 +20°C° 0.2 mm 1 mps 661 mmHg 31%
    22:00 +19°C° 0.2 mm 1 mps 661 mmHg 32%
    23:00 +19°C° 0.2 mm 1 mps 660 mmHg 33%

    25 September, Monday

    Time Temperature Precipitation Wind Pressure Humidity
    00:00 +19°C° 0.2 mm 1 mps 660 mmHg 34%
    01:00 +17°C° 0.2 mm 2 mps 660 mmHg 34%
    02:00 +17°C° 0.2 mm 2 mps 660 mmHg 34%
    03:00 +17°C° 0.1 mm 2 mps 660 mmHg 34%
    04:00 +17°C° 0.1 mm 2 mps 660 mmHg 35%
    05:00 +17°C° 0.1 mm 2 mps 660 mmHg 35%
    06:00 +19°C° 0 mm 2 mps 661 mmHg 32%
    07:00 +23°C° 0 mm 2 mps 661 mmHg 30%
    08:00 +25°C° 0 mm 2 mps 662 mmHg 27%
    09:00 +27°C° 0 mm 2 mps 662 mmHg 25%
    10:00 +28°C° 0 mm 3 mps 662 mmHg 23%
    11:00 +30°C° 0 mm 3 mps 663 mmHg 21%
    12:00 +30°C° 0 mm 4 mps 662 mmHg 21%
    13:00 +32°C° 0 mm 4 mps 662 mmHg 20%
    14:00 +32°C° 0 mm 4 mps 662 mmHg 19%
    15:00 +30°C° 0 mm 3 mps 661 mmHg 21%
    16:00 +29°C° 0 mm 3 mps 661 mmHg 23%
    17:00 +27°C° 0 mm 2 mps 661 mmHg 25%
    18:00 +26°C° 0 mm 2 mps 660 mmHg 30%
    19:00 +24°C° 0 mm 1 mps 660 mmHg 35%
    20:00 +22°C° 0 mm 1 mps 660 mmHg 40%
    21:00 +21°C° 0 mm 1 mps 660 mmHg 43%
    22:00 +20°C° 0 mm 1 mps 659 mmHg 46%
    23:00 +20°C° 0 mm 1 mps 659 mmHg 50%
    Show more